Location: Apeadero de Los Molinos-Guadarrama
(40.7091°N, 4.0689°W)
Time: 12:37:56
(UTC+00:00)

Cosmos 1500 - Pass Details

Date: 14 May 2021
Orbit: 497 x 518 km, 82.5° (Epoch: 18 June)

Event Time Altitude Azimuth Distance (km) Brightness Sun altitude
Rises 20:32:08 0° 359° (N) 2,603 7.4 -11.5°
Reaches altitude 10° 20:34:21 10° 7° (N) 1,711 6.3 -11.8°
Maximum altitude 20:37:55 41° 79° (ENE) 730 3.6 -12.4°
Enters shadow 20:40:03 20° 140° (SE) 1,180 4.4 -12.7°
